Sussex, NJ

9:27 AM EST on February 27, 2017 (GMT -0500)
Sussex

Weather History for KFWN - October, 2012

Change the Weather History Date:

Saturday, October 20, 2012

  Actual Average Record
Temperature  
Mean Temperature 54 °F -  
Max Temperature 66 °F 58 °F 84 °F (1963)
Min Temperature 41 °F 33 °F 19 °F (1972)
Degree Days  
Heating Degree Days 12    
Growing Degree Days 4 (Base 50)    
Moisture  
Dew Point 49 °F    
Average Humidity 83    
Maximum Humidity 100    
Minimum Humidity 45    
Precipitation  
Precipitation 0.01 in - - ()
Sea Level Pressure  
Sea Level Pressure 29.71 in    
Wind  
Wind Speed 1 mph (SW)    
Max Wind Speed 8 mph    
Max Gust Speed -    
Visibility 5 miles    
Events Fog    
Averages and records for this station are not official NWS values.
T = Trace of Precipitation, MM = Missing Value Source: NWS Daily Summary

Daily Weather History Graph

Daily Weather History Graph

Search for Another Location

Airport or City:

Trip Planner

Search our weather history database for the weather conditions in past years. The results will help you decide how hot, cold, wet, or windy it might be!

Date:

Astronomy

Oct. 20, 2012 Rise Set
Actual Time 7:16 AM EDT 6:09 PM EDT
Civil Twilight 6:48 AM EDT 6:37 PM EDT
Nautical Twilight 6:16 AM EDT 7:09 PM EDT
Astronomical Twilight 5:44 AM EDT 7:41 PM EDT
Moon 12:51 PM EDT (10/20) 10:51 PM EDT (10/20)
Length of Visible Light 11h 49m
Length of Day
10h 53m
Waxing Crescent, 34% of the Moon is Illuminated
Oct 20
Waxing Crescent
Oct 21
First Quarter
Oct 29
Full
Nov 6
Last Quarter
Nov 13
New

Hourly Weather History & Observations

Time (EDT) Temp. Dew Point Humidity Pressure Visibility Wind Dir Wind Speed Gust Speed Precip Events Conditions
12:01 AM 60.8 °F 59.0 °F 94% 29.67 in 8.0 mi Calm Calm - N/A   Mostly Cloudy
12:53 AM 61.0 °F 57.0 °F 87% 29.68 in 10.0 mi SW 3.5 mph - N/A   Scattered Clouds
1:53 AM 57.9 °F 57.0 °F 97% 29.66 in 7.0 mi Calm Calm - N/A   Partly Cloudy
2:02 AM 57.2 °F 55.4 °F 94% 29.66 in 1.2 mi Calm Calm - N/A   Clear
2:10 AM 57.2 °F 55.4 °F 94% 29.66 in 0.5 mi Calm Calm - N/A Fog Fog
2:15 AM 57.2 °F 55.4 °F 94% 29.66 in 1.8 mi Calm Calm - N/A   Partly Cloudy
2:19 AM 55.4 °F 55.4 °F 100% 29.66 in 1.0 mi Calm Calm - N/A   Partly Cloudy
2:26 AM 53.6 °F 53.6 °F 100% 29.66 in 0.2 mi Calm Calm - N/A Fog Fog
2:48 AM 53.6 °F 53.6 °F 100% 29.66 in 1.0 mi Calm Calm - 0.01 in   Mostly Cloudy
2:53 AM 53.1 °F 53.1 °F 100% 29.65 in 0.5 mi Calm Calm - 0.01 in Fog Fog
3:16 AM 53.6 °F 51.8 °F 94% 29.66 in 0.2 mi Calm Calm - N/A Fog Fog
3:53 AM 52.0 °F 51.1 °F 97% 29.66 in 0.2 mi Calm Calm - N/A Fog Fog
4:53 AM 51.1 °F 50.0 °F 96% 29.68 in 0.5 mi Calm Calm - N/A Fog Fog
5:53 AM 50.0 °F 50.0 °F 100% 29.69 in 0.2 mi Calm Calm - N/A Fog Fog
6:53 AM 52.0 °F 51.1 °F 97% 29.69 in 0.2 mi Calm Calm - N/A Fog Fog
7:53 AM 54.0 °F 53.1 °F 97% 29.72 in 0.2 mi Calm Calm - N/A Fog Fog
8:53 AM 54.0 °F 54.0 °F 100% 29.71 in 0.5 mi Calm Calm - N/A Fog Fog
9:02 AM 53.6 °F 53.6 °F 100% 29.71 in 1.8 mi Calm Calm - N/A   Mostly Cloudy
9:05 AM 53.6 °F 53.6 °F 100% 29.71 in 3.0 mi SSW 3.5 mph - N/A   Mostly Cloudy
9:16 AM 55.4 °F 53.6 °F 94% 29.72 in 6.0 mi SSW 3.5 mph - N/A   Partly Cloudy
9:53 AM 55.9 °F 53.1 °F 90% 29.71 in 10.0 mi Calm Calm - N/A   Clear
10:53 AM 62.1 °F 51.1 °F 67% 29.72 in 10.0 mi South 4.6 mph - N/A   Partly Cloudy
11:53 AM 64.0 °F 50.0 °F 60% 29.71 in 10.0 mi SSW 6.9 mph - N/A   Partly Cloudy
12:53 PM 64.0 °F 46.0 °F 52% 29.70 in 10.0 mi West 4.6 mph - N/A   Overcast
1:53 PM 63.0 °F 45.0 °F 52% 29.70 in 10.0 mi Variable 5.8 mph - N/A   Overcast
2:53 PM 63.0 °F 42.1 °F 46% 29.70 in 10.0 mi SSW 5.8 mph - N/A   Mostly Cloudy
3:53 PM 63.0 °F 41.0 °F 45% 29.70 in 10.0 mi SSW 8.1 mph - N/A   Clear
5:53 PM 59.0 °F 39.0 °F 48% 29.75 in 10.0 mi WSW 4.6 mph - N/A   Partly Cloudy
6:53 PM 55.9 °F 37.0 °F 49% 29.78 in 10.0 mi Variable 5.8 mph - N/A   Clear
7:53 PM 53.1 °F 39.0 °F 59% 29.80 in 10.0 mi SW 3.5 mph - N/A   Clear
8:53 PM 48.9 °F 39.9 °F 71% 29.81 in 10.0 mi SW 3.5 mph - N/A   Clear
9:53 PM 46.0 °F 41.0 °F 83% 29.83 in 10.0 mi Calm Calm - N/A   Clear
10:53 PM 43.0 °F 39.9 °F 89% 29.84 in 10.0 mi Calm Calm - N/A   Clear
11:53 PM 41.0 °F 39.0 °F 93% 29.85 in 10.0 mi Calm Calm - N/A   Clear